| time (UTC) | temp F | wind direction | speed MPH | gust MPH | rain 1hr in | rain 24hr in | rain mn in | humidity % | barometer mb |
| 20260507015001 | 75 | 124 | 7.0 | 9.0 | 0.00 | 0.00 | 0.00 | 66 | 1014.5 |
| 20260507014501 | 75 | 189 | 5.0 | 9.0 | 0.00 | 0.00 | 0.00 | 66 | 1014.6 |
| 20260507014001 | 76 | 149 | 3.0 | 11.0 | 0.00 | 0.00 | 0.00 | 65 | 1014.8 |
| 20260507013501 | 76 | 173 | 9.0 | 10.0 | 0.00 | 0.00 | 0.00 | 65 | 1014.7 |
| 20260507013001 | 76 | 163 | 6.0 | 10.0 | 0.00 | 0.00 | 0.00 | 65 | 1014.8 |
| 20260507012501 | 76 | 145 | 2.0 | 13.0 | 0.00 | 0.00 | 0.00 | 64 | 1014.7 |
| 20260507012001 | 76 | 122 | 7.0 | 14.0 | 0.00 | 0.00 | 0.00 | 64 | 1014.6 |
| 20260507011501 | 76 | 148 | 6.0 | 12.0 | 0.00 | 0.00 | 0.00 | 64 | 1014.5 |
| 20260507011001 | 76 | 158 | 6.0 | 15.0 | 0.00 | 0.00 | 0.00 | 64 | 1014.4 |
| 20260507010501 | 76 | 132 | 5.0 | 12.0 | 0.00 | 0.00 | 0.00 | 64 | 1014.5 |
| 20260507010001 | 76 | 162 | 7.0 | 12.0 | 0.00 | 0.00 | 0.00 | 64 | 1014.5 |
| 20260507005501 | 76 | 160 | 6.0 | 9.0 | 0.00 | 0.00 | 0.00 | 65 | 1014.4 |
| 20260507005001 | 76 | 144 | 5.0 | 10.0 | 0.00 | 0.00 | 0.00 | 66 | 1014.5 |
| 20260507004501 | 76 | 172 | 4.0 | 11.0 | 0.00 | 0.00 | 0.00 | 66 | 1014.6 |
| 20260507004001 | 76 | 153 | 6.0 | 10.0 | 0.00 | 0.00 | 0.00 | 65 | 1014.5 |
| 20260507003501 | 76 | 194 | 5.0 | 12.0 | 0.00 | 0.00 | 0.00 | 65 | 1014.5 |
| 20260507003001 | 76 | 153 | 3.0 | 13.0 | 0.00 | 0.00 | 0.00 | 65 | 1014.4 |
| 20260507002501 | 76 | 164 | 7.0 | 14.0 | 0.00 | 0.00 | 0.00 | 65 | 1014.2 |
| 20260507002001 | 76 | 177 | 10.0 | 16.0 | 0.00 | 0.00 | 0.00 | 66 | 1014.2 |
| 20260507001501 | 76 | 129 | 7.0 | 15.0 | 0.00 | 0.00 | 0.00 | 66 | 1014.2 |
| 20260507001001 | 77 | 142 | 11.0 | 17.0 | 0.00 | 0.00 | 0.00 | 67 | 1014.1 |
| 20260507000501 | 77 | 130 | 7.0 | 19.0 | 0.00 | 0.00 | 0.00 | 67 | 1014.1 |
| 20260507000002 | 77 | 149 | 12.0 | 16.0 | 0.00 | 0.00 | 0.00 | 67 | 1014.0 |
| 20260506235501 | 77 | 125 | 4.0 | 12.0 | 0.00 | 0.00 | 0.00 | 67 | 1014.0 |
| 20260506235001 | 77 | 160 | 8.0 | 13.0 | 0.00 | 0.00 | 0.00 | 68 | 1013.8 |
| 20260506234501 | 77 | 151 | 9.0 | 13.0 | 0.00 | 0.00 | 0.00 | 68 | 1013.8 |
| 20260506234001 | 77 | 159 | 6.0 | 10.0 | 0.00 | 0.00 | 0.00 | 68 | 1013.9 |
| 20260506233501 | 78 | 163 | 5.0 | 11.0 | 0.00 | 0.00 | 0.00 | 68 | 1013.9 |
| 20260506233001 | 78 | 120 | 6.0 | 14.0 | 0.00 | 0.00 | 0.00 | 68 | 1013.9 |
| 20260506232501 | 78 | 150 | 9.0 | 13.0 | 0.00 | 0.00 | 0.00 | 68 | 1013.8 |
| 20260506232001 | 78 | 134 | 7.0 | 14.0 | 0.00 | 0.00 | 0.00 | 68 | 1013.7 |
| 20260506231501 | 78 | 133 | 6.0 | 15.0 | 0.00 | 0.00 | 0.00 | 68 | 1013.7 |
| 20260506231001 | 78 | 190 | 7.0 | 16.0 | 0.00 | 0.00 | 0.00 | 67 | 1013.6 |
| 20260506230501 | 78 | 133 | 14.0 | 17.0 | 0.00 | 0.00 | 0.00 | 66 | 1013.6 |
| 20260506230000 | 78 | 135 | 8.0 | 19.0 | 0.00 | 0.00 | 0.00 | 65 | 1013.6 |
| 20260506225501 | 79 | 142 | 9.0 | 20.0 | 0.00 | 0.00 | 0.00 | 63 | 1013.6 |
| 20260506225000 | 79 | 184 | 7.0 | 17.0 | 0.00 | 0.00 | 0.00 | 62 | 1013.7 |
| 20260506224500 | 79 | 136 | 16.0 | 15.0 | 0.00 | 0.00 | 0.00 | 61 | 1013.7 |
| 20260506224000 | 79 | 162 | 8.0 | 18.0 | 0.00 | 0.00 | 0.00 | 61 | 1013.8 |
| 20260506223500 | 79 | 130 | 9.0 | 22.0 | 0.00 | 0.00 | 0.00 | 61 | 1013.8 |
| 20260506223000 | 80 | 96 | 8.0 | 18.0 | 0.00 | 0.00 | 0.00 | 61 | 1013.9 |
| 20260506222500 | 80 | 156 | 17.0 | 12.0 | 0.00 | 0.00 | 0.00 | 60 | 1013.9 |
| 20260506222000 | 80 | 97 | 11.0 | 19.0 | 0.00 | 0.00 | 0.00 | 61 | 1013.8 |
| 20260506221500 | 80 | 167 | 12.0 | 17.0 | 0.00 | 0.00 | 0.00 | 60 | 1013.8 |
| 20260506221001 | 80 | 146 | 10.0 | 15.0 | 0.00 | 0.00 | 0.00 | 61 | 1013.9 |
| 20260506220500 | 80 | 139 | 10.0 | 16.0 | 0.00 | 0.00 | 0.00 | 62 | 1013.9 |
| 20260506220000 | 80 | 159 | 7.0 | 16.0 | 0.00 | 0.00 | 0.00 | 62 | 1013.7 |
| 20260506215500 | 81 | 220 | 8.0 | 17.0 | 0.00 | 0.00 | 0.00 | 62 | 1013.6 |
| 20260506215000 | 80 | 145 | 9.0 | 16.0 | 0.00 | 0.00 | 0.00 | 62 | 1013.7 |
| 20260506214500 | 81 | 97 | 9.0 | 17.0 | 0.00 | 0.00 | 0.00 | 62 | 1013.7 |
| 20260506214000 | 81 | 86 | 8.0 | 18.0 | 0.00 | 0.00 | 0.00 | 63 | 1013.5 |
| 20260506213500 | 81 | 154 | 6.0 | 15.0 | 0.00 | 0.00 | 0.00 | 63 | 1013.5 |
| 20260506213100 | 81 | 162 | 7.0 | 15.0 | 0.00 | 0.00 | 0.00 | 63 | 1013.6 |
| 20260506212700 | 81 | 156 | 7.0 | 19.0 | 0.00 | 0.00 | 0.00 | 64 | 1013.6 |
| 20260506212300 | 81 | 110 | 6.0 | 20.0 | 0.00 | 0.00 | 0.00 | 64 | 1013.7 |
| 20260506211900 | 81 | 130 | 11.0 | 15.0 | 0.00 | 0.00 | 0.00 | 63 | 1013.7 |
| 20260506211700 | 81 | 83 | 6.0 | 15.0 | 0.00 | 0.00 | 0.00 | 63 | 1013.7 |
| 20260506211500 | 81 | 161 | 9.0 | 16.0 | 0.00 | 0.00 | 0.00 | 63 | 1013.6 |
| 20260506211300 | 81 | 86 | 12.0 | 16.0 | 0.00 | 0.00 | 0.00 | 63 | 1013.7 |
| 20260506211100 | 81 | 139 | 9.0 | 16.0 | 0.00 | 0.00 | 0.00 | 63 | 1013.7 |
| 20260506211000 | 81 | 122 | 10.0 | 18.0 | 0.00 | 0.00 | 0.00 | 63 | 1013.7 |
| 20260506210900 | 81 | 106 | 7.0 | 18.0 | 0.00 | 0.00 | 0.00 | 64 | 1013.8 |
| 20260506210800 | 81 | 110 | 6.0 | 18.0 | 0.00 | 0.00 | 0.00 | 64 | 1013.8 |
| 20260506210232 | 81 | 129 | 10.0 | 19.0 | 0.00 | 0.00 | 0.00 | 64 | 1013.9 |
| 20260506205731 | 81 | 88 | 10.0 | 15.0 | 0.00 | 0.00 | 0.00 | 62 | 1013.8 |
| 20260506205231 | 81 | 122 | 10.0 | 18.0 | 0.00 | 0.00 | 0.00 | 64 | 1013.8 |
| 20260506204731 | 81 | 105 | 6.0 | 19.0 | 0.00 | 0.00 | 0.00 | 64 | 1013.8 |
| 20260506204231 | 81 | 104 | 9.0 | 16.0 | 0.00 | 0.00 | 0.00 | 64 | 1013.9 |
| 20260506203731 | 81 | 103 | 12.0 | 19.0 | 0.00 | 0.00 | 0.00 | 64 | 1014.0 |
| 20260506203231 | 81 | 149 | 9.0 | 17.0 | 0.00 | 0.00 | 0.00 | 63 | 1014.0 |
| 20260506202731 | 81 | 163 | 9.0 | 19.0 | 0.00 | 0.00 | 0.00 | 62 | 1014.0 |
| 20260506202231 | 81 | 122 | 5.0 | 19.0 | 0.00 | 0.00 | 0.00 | 62 | 1014.1 |
| 20260506201731 | 81 | 134 | 16.0 | 18.0 | 0.00 | 0.00 | 0.00 | 62 | 1014.1 |
| 20260506201231 | 81 | 105 | 13.0 | 16.0 | 0.00 | 0.00 | 0.00 | 62 | 1014.1 |
| 20260506200731 | 81 | 153 | 8.0 | 17.0 | 0.00 | 0.00 | 0.00 | 62 | 1014.2 |
| 20260506200231 | 81 | 125 | 7.0 | 18.0 | 0.00 | 0.00 | 0.00 | 62 | 1014.3 |
| 20260506195731 | 81 | 142 | 13.0 | 19.0 | 0.00 | 0.00 | 0.00 | 60 | 1014.4 |
| 20260506195231 | 81 | 137 | 7.0 | 16.0 | 0.00 | 0.00 | 0.00 | 61 | 1014.4 |
| 20260506194731 | 81 | 134 | 13.0 | 14.0 | 0.00 | 0.00 | 0.00 | 60 | 1014.6 |
| 20260506194231 | 81 | 87 | 5.0 | 20.0 | 0.00 | 0.00 | 0.00 | 61 | 1014.5 |
| 20260506193731 | 82 | 175 | 11.0 | 16.0 | 0.00 | 0.00 | 0.00 | 60 | 1014.5 |
| 20260506193231 | 81 | 142 | 11.0 | 18.0 | 0.00 | 0.00 | 0.00 | 60 | 1014.6 |
| 20260506192731 | 81 | 94 | 12.0 | 18.0 | 0.00 | 0.00 | 0.00 | 60 | 1014.7 |
| 20260506192231 | 82 | 168 | 9.0 | 19.0 | 0.00 | 0.00 | 0.00 | 60 | 1014.8 |
| 20260506191731 | 82 | 84 | 11.0 | 18.0 | 0.00 | 0.00 | 0.00 | 59 | 1014.8 |
| 20260506191231 | 82 | 108 | 8.0 | 15.0 | 0.00 | 0.00 | 0.00 | 60 | 1014.9 |
| 20260506190731 | 82 | 151 | 11.0 | 20.0 | 0.00 | 0.00 | 0.00 | 59 | 1015.1 |
| 20260506190231 | 82 | 139 | 11.0 | 17.0 | 0.00 | 0.00 | 0.00 | 58 | 1015.1 |
| 20260506185731 | 82 | 156 | 7.0 | 18.0 | 0.00 | 0.00 | 0.00 | 59 | 1015.1 |
| 20260506185231 | 83 | 168 | 11.0 | 15.0 | 0.00 | 0.00 | 0.00 | 57 | 1015.1 |
| 20260506184731 | 83 | 76 | 11.0 | 16.0 | 0.00 | 0.00 | 0.00 | 58 | 1015.1 |
| 20260506184231 | 83 | 113 | 6.0 | 16.0 | 0.00 | 0.00 | 0.00 | 58 | 1015.2 |
| 20260506183731 | 83 | 127 | 8.0 | 15.0 | 0.00 | 0.00 | 0.00 | 57 | 1015.3 |
| 20260506183231 | 83 | 147 | 7.0 | 19.0 | 0.00 | 0.00 | 0.00 | 57 | 1015.4 |
| 20260506182731 | 83 | 117 | 13.0 | 15.0 | 0.00 | 0.00 | 0.00 | 55 | 1015.3 |
| 20260506182231 | 84 | 123 | 7.0 | 16.0 | 0.00 | 0.00 | 0.00 | 56 | 1015.4 |
| 20260506181731 | 84 | 91 | 10.0 | 14.0 | 0.00 | 0.00 | 0.00 | 55 | 1015.4 |
| 20260506181231 | 85 | 73 | 4.0 | 17.0 | 0.00 | 0.00 | 0.00 | 54 | 1015.5 |
| 20260506180731 | 86 | 90 | 7.0 | 12.0 | 0.00 | 0.00 | 0.00 | 52 | 1015.6 |
| 20260506180231 | 86 | 175 | 3.0 | 10.0 | 0.00 | 0.00 | 0.00 | 52 | 1015.6 |
| 20260506175731 | 86 | 46 | 4.0 | 5.0 | 0.00 | 0.00 | 0.00 | 46 | 1015.6 |
| 20260506175231 | 86 | 11 | 2.0 | 10.0 | 0.00 | 0.00 | 0.00 | 46 | 1015.7 |
| 20260506174731 | 85 | 184 | 6.0 | 13.0 | 0.00 | 0.00 | 0.00 | 47 | 1015.8 |
| 20260506174231 | 86 | 197 | 8.0 | 16.0 | 0.00 | 0.00 | 0.00 | 46 | 1015.9 |
| 20260506173731 | 86 | 264 | 3.0 | 10.0 | 0.00 | 0.00 | 0.00 | 45 | 1016.0 |
| 20260506173231 | 86 | 289 | 2.0 | 13.0 | 0.00 | 0.00 | 0.00 | 47 | 1016.0 |
| 20260506172731 | 85 | 278 | 3.0 | 12.0 | 0.00 | 0.00 | 0.00 | 47 | 1016.1 |
| 20260506172231 | 85 | 138 | 5.0 | 12.0 | 0.00 | 0.00 | 0.00 | 47 | 1016.1 |
| 20260506171730 | 85 | 207 | 4.0 | 16.0 | 0.00 | 0.00 | 0.00 | 47 | 1016.1 |
| 20260506171230 | 85 | 156 | 10.0 | 9.0 | 0.00 | 0.00 | 0.00 | 47 | 1016.3 |
| 20260506170730 | 85 | 316 | 1.0 | 9.0 | 0.00 | 0.00 | 0.00 | 47 | 1016.3 |
| 20260506170230 | 85 | 225 | 1.0 | 13.0 | 0.00 | 0.00 | 0.00 | 49 | 1016.3 |
| 20260506165730 | 85 | 240 | 7.0 | 11.0 | 0.00 | 0.00 | 0.00 | 48 | 1016.4 |
| 20260506165230 | 84 | 235 | 3.0 | 11.0 | 0.00 | 0.00 | 0.00 | 50 | 1016.5 |
| 20260506164730 | 84 | 207 | 5.0 | 12.0 | 0.00 | 0.00 | 0.00 | 49 | 1016.4 |
| 20260506164230 | 84 | 220 | 4.0 | 8.0 | 0.00 | 0.00 | 0.00 | 50 | 1016.5 |
| 20260506163730 | 84 | 176 | 6.0 | 11.0 | 0.00 | 0.00 | 0.00 | 51 | 1016.7 |
| 20260506163230 | 83 | 230 | 2.0 | 13.0 | 0.00 | 0.00 | 0.00 | 52 | 1016.8 |
| 20260506162730 | 83 | 194 | 8.0 | 15.0 | 0.00 | 0.00 | 0.00 | 51 | 1016.8 |
| 20260506162230 | 83 | 251 | 4.0 | 15.0 | 0.00 | 0.00 | 0.00 | 51 | 1016.9 |
| 20260506161730 | 83 | 214 | 9.0 | 16.0 | 0.00 | 0.00 | 0.00 | 51 | 1016.9 |
| 20260506161230 | 83 | 220 | 7.0 | 14.0 | 0.00 | 0.00 | 0.00 | 53 | 1016.9 |
| 20260506160730 | 82 | 127 | 8.0 | 17.0 | 0.00 | 0.00 | 0.00 | 52 | 1016.9 |
| 20260506160230 | 82 | 177 | 9.0 | 14.0 | 0.00 | 0.00 | 0.00 | 52 | 1016.9 |
| 20260506155730 | 82 | 224 | 5.0 | 15.0 | 0.00 | 0.00 | 0.00 | 54 | 1017.0 |
| 20260506155230 | 82 | 245 | 6.0 | 14.0 | 0.00 | 0.00 | 0.00 | 53 | 1017.0 |
| 20260506154730 | 81 | 187 | 2.0 | 14.0 | 0.00 | 0.00 | 0.00 | 54 | 1016.9 |
| 20260506154230 | 81 | 238 | 4.0 | 12.0 | 0.00 | 0.00 | 0.00 | 54 | 1016.9 |
| 20260506153730 | 81 | 223 | 5.0 | 16.0 | 0.00 | 0.00 | 0.00 | 54 | 1016.9 |
| 20260506153230 | 81 | 216 | 10.0 | 14.0 | 0.00 | 0.00 | 0.00 | 55 | 1016.9 |
| 20260506152730 | 80 | 280 | 6.0 | 16.0 | 0.00 | 0.00 | 0.00 | 54 | 1016.9 |
| 20260506152230 | 80 | 237 | 4.0 | 14.0 | 0.00 | 0.00 | 0.00 | 56 | 1016.8 |
| 20260506151730 | 80 | 197 | 10.0 | 17.0 | 0.00 | 0.00 | 0.00 | 55 | 1016.8 |
| 20260506151230 | 80 | 208 | 12.0 | 18.0 | 0.00 | 0.00 | 0.00 | 54 | 1016.8 |
| 20260506150730 | 80 | 225 | 6.0 | 15.0 | 0.00 | 0.00 | 0.00 | 56 | 1016.7 |
| 20260506150230 | 80 | 176 | 9.0 | 15.0 | 0.00 | 0.00 | 0.00 | 55 | 1016.8 |
| 20260506145730 | 80 | 225 | 8.0 | 16.0 | 0.00 | 0.00 | 0.00 | 56 | 1016.8 |
| 20260506145230 | 79 | 168 | 5.0 | 14.0 | 0.00 | 0.00 | 0.00 | 56 | 1016.7 |
| 20260506144730 | 79 | 188 | 3.0 | 12.0 | 0.00 | 0.00 | 0.00 | 58 | 1016.8 |
| 20260506144230 | 79 | 182 | 3.0 | 13.0 | 0.00 | 0.00 | 0.00 | 59 | 1016.8 |
| 20260506143730 | 79 | 199 | 7.0 | 15.0 | 0.00 | 0.00 | 0.00 | 60 | 1016.8 |
| 20260506143230 | 78 | 199 | 5.0 | 17.0 | 0.00 | 0.00 | 0.00 | 60 | 1016.7 |
| 20260506142730 | 78 | 195 | 10.0 | 13.0 | 0.00 | 0.00 | 0.00 | 60 | 1016.6 |
| 20260506142230 | 78 | 182 | 6.0 | 14.0 | 0.00 | 0.00 | 0.00 | 62 | 1016.7 |
| 20260506141730 | 77 | 187 | 11.0 | 13.0 | 0.00 | 0.00 | 0.00 | 61 | 1016.8 |
| 20260506141230 | 77 | 165 | 6.0 | 14.0 | 0.00 | 0.00 | 0.00 | 62 | 1016.6 |
| 20260506140730 | 77 | 160 | 7.0 | 12.0 | 0.00 | 0.00 | 0.00 | 62 | 1016.6 |
| 20260506140230 | 77 | 129 | 8.0 | 12.0 | 0.00 | 0.00 | 0.00 | 63 | 1016.6 |
| 20260506135730 | 77 | 171 | 10.0 | 14.0 | 0.00 | 0.00 | 0.00 | 64 | 1016.6 |
| 20260506135230 | 77 | 213 | 5.0 | 16.0 | 0.00 | 0.00 | 0.00 | 65 | 1016.7 |
| 20260506134730 | 76 | 180 | 7.0 | 15.0 | 0.00 | 0.00 | 0.00 | 66 | 1016.8 |
| 20260506134230 | 76 | 196 | 10.0 | 13.0 | 0.00 | 0.00 | 0.00 | 67 | 1016.7 |
| 20260506133730 | 76 | 239 | 2.0 | 12.0 | 0.00 | 0.00 | 0.00 | 70 | 1016.8 |
| 20260506133230 | 75 | 194 | 5.0 | 10.0 | 0.00 | 0.00 | 0.00 | 71 | 1016.6 |
| 20260506132729 | 75 | 223 | 9.0 | 11.0 | 0.00 | 0.00 | 0.00 | 73 | 1016.6 |
| 20260506132229 | 74 | 206 | 9.0 | 14.0 | 0.00 | 0.00 | 0.00 | 73 | 1016.7 |
| 20260506131729 | 74 | 161 | 11.0 | 12.0 | 0.00 | 0.00 | 0.00 | 73 | 1016.6 |
| 20260506131229 | 74 | 166 | 6.0 | 10.0 | 0.00 | 0.00 | 0.00 | 74 | 1016.5 |
| 20260506130729 | 73 | 210 | 6.0 | 11.0 | 0.00 | 0.00 | 0.00 | 75 | 1016.6 |
| 20260506130229 | 73 | 193 | 6.0 | 13.0 | 0.00 | 0.00 | 0.00 | 76 | 1016.6 |
| 20260506125729 | 72 | 209 | 8.0 | 12.0 | 0.00 | 0.00 | 0.00 | 77 | 1016.7 |
| 20260506125229 | 72 | 189 | 9.0 | 12.0 | 0.00 | 0.00 | 0.00 | 78 | 1016.7 |
| 20260506124729 | 71 | 219 | 7.0 | 11.0 | 0.00 | 0.00 | 0.00 | 79 | 1016.6 |
| 20260506124229 | 71 | 220 | 9.0 | 13.0 | 0.00 | 0.00 | 0.00 | 80 | 1016.6 |
| 20260506123729 | 70 | 181 | 8.0 | 11.0 | 0.00 | 0.00 | 0.00 | 81 | 1016.5 |
| 20260506123229 | 70 | 184 | 5.0 | 9.0 | 0.00 | 0.00 | 0.00 | 83 | 1016.5 |
| 20260506122729 | 69 | 199 | 6.0 | 9.0 | 0.00 | 0.00 | 0.00 | 85 | 1016.5 |
| 20260506122229 | 68 | 214 | 5.0 | 8.0 | 0.00 | 0.00 | 0.00 | 86 | 1016.5 |
| 20260506121729 | 68 | 196 | 5.0 | 8.0 | 0.00 | 0.00 | 0.00 | 87 | 1016.5 |
| 20260506121229 | 67 | 218 | 3.0 | 6.0 | 0.00 | 0.00 | 0.00 | 88 | 1016.4 |
| 20260506120729 | 66 | 198 | 2.0 | 6.0 | 0.00 | 0.00 | 0.00 | 89 | 1016.2 |
| 20260506120229 | 66 | 197 | 3.0 | 6.0 | 0.00 | 0.00 | 0.00 | 90 | 1016.3 |
| 20260506115729 | 65 | 139 | 2.0 | 5.0 | 0.00 | 0.00 | 0.00 | 91 | 1016.3 |
| 20260506115229 | 65 | 148 | 3.0 | 5.0 | 0.00 | 0.00 | 0.00 | 92 | 1016.2 |
| 20260506114729 | 64 | 213 | 3.0 | 5.0 | 0.00 | 0.00 | 0.00 | 92 | 1016.1 |
| 20260506114229 | 64 | 196 | 4.0 | 5.0 | 0.00 | 0.00 | 0.00 | 92 | 1016.1 |
| 20260506113729 | 63 | 189 | 4.0 | 7.0 | 0.00 | 0.00 | 0.00 | 92 | 1016.2 |
| 20260506113229 | 63 | 227 | 4.0 | 6.0 | 0.00 | 0.00 | 0.00 | 92 | 1016.0 |
| 20260506112729 | 62 | 205 | 3.0 | 6.0 | 0.00 | 0.00 | 0.00 | 92 | 1016.0 |
| 20260506112229 | 62 | 196 | 6.0 | 5.0 | 0.00 | 0.00 | 0.00 | 92 | 1016.0 |
| 20260506111729 | 62 | 203 | 3.0 | 5.0 | 0.00 | 0.00 | 0.00 | 92 | 1015.9 |
| 20260506111229 | 62 | 176 | 2.0 | 5.0 | 0.00 | 0.00 | 0.00 | 92 | 1015.7 |
| 20260506110729 | 61 | 171 | 2.0 | 6.0 | 0.00 | 0.00 | 0.00 | 92 | 1015.6 |
| 20260506110229 | 61 | 182 | 4.0 | 6.0 | 0.00 | 0.00 | 0.00 | 91 | 1015.6 |
| 20260506105729 | 61 | 161 | 3.0 | 5.0 | 0.00 | 0.00 | 0.00 | 91 | 1015.5 |
| 20260506105229 | 61 | 165 | 3.0 | 5.0 | 0.00 | 0.00 | 0.00 | 91 | 1015.5 |
| 20260506104729 | 61 | 158 | 3.0 | 4.0 | 0.00 | 0.00 | 0.00 | 91 | 1015.5 |
| 20260506104229 | 61 | 177 | 3.0 | 5.0 | 0.00 | 0.00 | 0.00 | 90 | 1015.6 |
| 20260506103729 | 61 | 196 | 3.0 | 4.0 | 0.00 | 0.00 | 0.00 | 90 | 1015.7 |
| 20260506103229 | 62 | 203 | 2.0 | 4.0 | 0.00 | 0.00 | 0.00 | 90 | 1015.6 |
| 20260506102729 | 62 | 202 | 3.0 | 4.0 | 0.00 | 0.00 | 0.00 | 90 | 1015.6 |
| 20260506102229 | 62 | 196 | 2.0 | 4.0 | 0.00 | 0.00 | 0.00 | 89 | 1015.5 |
| 20260506101729 | 62 | 188 | 2.0 | 4.0 | 0.00 | 0.00 | 0.00 | 89 | 1015.6 |
| 20260506101229 | 62 | 192 | 2.0 | 6.0 | 0.00 | 0.00 | 0.00 | 89 | 1015.6 |
| 20260506100729 | 62 | 184 | 2.0 | 5.0 | 0.00 | 0.00 | 0.00 | 89 | 1015.6 |
| 20260506100229 | 62 | 196 | 2.0 | 4.0 | 0.00 | 0.00 | 0.00 | 89 | 1015.6 |
| 20260506095729 | 62 | 203 | 3.0 | 4.0 | 0.00 | 0.00 | 0.00 | 89 | 1015.5 |
| 20260506095229 | 62 | 211 | 3.0 | 5.0 | 0.00 | 0.00 | 0.00 | 88 | 1015.6 |
| 20260506094729 | 62 | 197 | 3.0 | 5.0 | 0.00 | 0.00 | 0.00 | 88 | 1015.5 |
| 20260506094229 | 62 | 204 | 2.0 | 5.0 | 0.00 | 0.00 | 0.00 | 88 | 1015.5 |
| 20260506093729 | 62 | 211 | 3.0 | 6.0 | 0.00 | 0.00 | 0.00 | 88 | 1015.6 |
| 20260506093229 | 62 | 217 | 3.0 | 6.0 | 0.00 | 0.00 | 0.00 | 88 | 1015.4 |
| 20260506092729 | 62 | 218 | 4.0 | 6.0 | 0.00 | 0.00 | 0.00 | 88 | 1015.4 |
| 20260506092229 | 62 | 192 | 4.0 | 6.0 | 0.00 | 0.00 | 0.00 | 87 | 1015.3 |
| 20260506091728 | 62 | 197 | 5.0 | 6.0 | 0.00 | 0.00 | 0.00 | 87 | 1015.3 |
| 20260506091228 | 62 | 180 | 3.0 | 5.0 | 0.00 | 0.00 | 0.00 | 87 | 1015.2 |
| 20260506090728 | 62 | 177 | 4.0 | 6.0 | 0.00 | 0.00 | 0.00 | 87 | 1015.2 |
| 20260506090228 | 62 | 176 | 3.0 | 7.0 | 0.00 | 0.00 | 0.00 | 87 | 1015.1 |
| 20260506085728 | 63 | 190 | 4.0 | 5.0 | 0.00 | 0.00 | 0.00 | 86 | 1015.3 |
| 20260506085228 | 63 | 190 | 4.0 | 6.0 | 0.00 | 0.00 | 0.00 | 86 | 1015.3 |
| 20260506084728 | 63 | 190 | 3.0 | 4.0 | 0.00 | 0.00 | 0.00 | 86 | 1015.3 |
| 20260506084228 | 63 | 203 | 3.0 | 4.0 | 0.00 | 0.00 | 0.00 | 86 | 1015.4 |
| 20260506083728 | 63 | 197 | 3.0 | 5.0 | 0.00 | 0.00 | 0.00 | 85 | 1015.4 |
| 20260506083228 | 63 | 224 | 3.0 | 5.0 | 0.00 | 0.00 | 0.00 | 85 | 1015.4 |
| 20260506082728 | 63 | 196 | 3.0 | 5.0 | 0.00 | 0.00 | 0.00 | 85 | 1015.3 |
| 20260506082228 | 63 | 214 | 4.0 | 6.0 | 0.00 | 0.00 | 0.00 | 85 | 1015.2 |
| 20260506081728 | 63 | 189 | 3.0 | 6.0 | 0.00 | 0.00 | 0.00 | 85 | 1015.2 |
| 20260506081228 | 63 | 173 | 3.0 | 6.0 | 0.00 | 0.00 | 0.00 | 85 | 1015.3 |
| 20260506080728 | 63 | 201 | 5.0 | 7.0 | 0.00 | 0.00 | 0.00 | 85 | 1015.3 |
| 20260506080228 | 63 | 203 | 3.0 | 6.0 | 0.00 | 0.00 | 0.00 | 85 | 1015.3 |
| 20260506073228 | 63 | 160 | 3.0 | 6.0 | 0.00 | 0.00 | 0.00 | 86 | 1015.0 |
| 20260506072728 | 63 | 176 | 3.0 | 7.0 | 0.00 | 0.00 | 0.00 | 87 | 1014.9 |
| 20260506072228 | 63 | 183 | 4.0 | 7.0 | 0.00 | 0.00 | 0.00 | 87 | 1014.8 |
| 20260506071728 | 62 | 166 | 5.0 | 7.0 | 0.00 | 0.00 | 0.00 | 88 | 1014.8 |
| 20260506071228 | 62 | 194 | 3.0 | 6.0 | 0.00 | 0.00 | 0.00 | 88 | 1014.9 |
| 20260506070728 | 62 | 149 | 4.0 | 6.0 | 0.00 | 0.00 | 0.00 | 88 | 1015.1 |
| 20260506070228 | 62 | 193 | 5.0 | 6.0 | 0.00 | 0.00 | 0.00 | 88 | 1015.2 |
| 20260506062228 | 62 | 172 | 4.0 | 6.0 | 0.00 | 0.00 | 0.00 | 87 | 1015.6 |
| 20260506061728 | 62 | 173 | 4.0 | 5.0 | 0.00 | 0.00 | 0.00 | 87 | 1015.8 |
| 20260506061228 | 62 | 174 | 4.0 | 5.0 | 0.00 | 0.00 | 0.00 | 87 | 1015.9 |
| 20260506060728 | 62 | 179 | 3.0 | 5.0 | 0.00 | 0.00 | 0.00 | 87 | 1015.8 |
| 20260506060228 | 62 | 172 | 3.0 | 5.0 | 0.00 | 0.00 | 0.00 | 87 | 1015.9 |
| 20260506051227 | 62 | 185 | 4.0 | 5.0 | 0.00 | 0.00 | 0.00 | 84 | 1016.1 |
| 20260506050727 | 62 | 197 | 4.0 | 5.0 | 0.00 | 0.00 | 0.00 | 84 | 1016.1 |
| 20260506050227 | 62 | 195 | 4.0 | 5.0 | 0.00 | 0.00 | 0.00 | 84 | 1016.2 |
| 20260506044727 | 63 | 193 | 3.0 | 4.0 | 0.00 | 0.00 | 0.00 | 82 | 1016.3 |
| 20260506044227 | 63 | 178 | 2.0 | 4.0 | 0.00 | 0.00 | 0.00 | 82 | 1016.4 |
| 20260506043727 | 63 | 193 | 2.0 | 4.0 | 0.00 | 0.00 | 0.00 | 82 | 1016.3 |
| 20260506043227 | 63 | 174 | 4.0 | 5.0 | 0.00 | 0.00 | 0.00 | 81 | 1016.4 |
| 20260506042727 | 63 | 199 | 3.0 | 5.0 | 0.00 | 0.00 | 0.00 | 81 | 1016.3 |
| 20260506042227 | 63 | 202 | 4.0 | 5.0 | 0.00 | 0.00 | 0.00 | 80 | 1016.3 |
| 20260506041727 | 64 | 175 | 3.0 | 5.0 | 0.00 | 0.00 | 0.00 | 79 | 1016.2 |
| 20260506041227 | 64 | 188 | 3.0 | 4.0 | 0.00 | 0.00 | 0.00 | 79 | 1016.4 |
| 20260506040727 | 64 | 193 | 3.0 | 4.0 | 0.00 | 0.00 | 0.00 | 78 | 1016.3 |
| 20260506040227 | 65 | 184 | 3.0 | 4.0 | 0.00 | 0.00 | 0.00 | 78 | 1016.3 |
| 20260506035727 | 65 | 189 | 2.0 | 3.0 | 0.00 | 0.00 | 0.00 | 77 | 1016.4 |
| 20260506035227 | 65 | 191 | 3.0 | 4.0 | 0.00 | 0.00 | 0.00 | 76 | 1016.4 |
| 20260506034727 | 65 | 177 | 2.0 | 5.0 | 0.00 | 0.00 | 0.00 | 75 | 1016.4 |
| 20260506034227 | 66 | 156 | 3.0 | 5.0 | 0.00 | 0.00 | 0.00 | 74 | 1016.4 |
| 20260506033727 | 66 | 165 | 2.0 | 5.0 | 0.00 | 0.00 | 0.00 | 74 | 1016.5 |
| 20260506033227 | 67 | 175 | 3.0 | 4.0 | 0.00 | 0.00 | 0.00 | 73 | 1016.5 |
| 20260506032727 | 67 | 190 | 2.0 | 4.0 | 0.00 | 0.00 | 0.00 | 73 | 1016.5 |
| 20260506032227 | 67 | 181 | 3.0 | 5.0 | 0.00 | 0.00 | 0.00 | 72 | 1016.5 |
| 20260506031727 | 67 | 183 | 1.0 | 4.0 | 0.00 | 0.00 | 0.00 | 71 | 1016.5 |
| 20260506031227 | 68 | 194 | 3.0 | 5.0 | 0.00 | 0.00 | 0.00 | 70 | 1016.4 |
| 20260506030727 | 68 | 199 | 4.0 | 5.0 | 0.00 | 0.00 | 0.00 | 69 | 1016.4 |
| 20260506030227 | 68 | 168 | 4.0 | 6.0 | 0.00 | 0.00 | 0.00 | 69 | 1016.3 |
| 20260506025727 | 68 | 166 | 5.0 | 7.0 | 0.00 | 0.00 | 0.00 | 68 | 1016.2 |
| 20260506025227 | 69 | 133 | 3.0 | 5.0 | 0.00 | 0.00 | 0.00 | 68 | 1016.2 |
| 20260506024727 | 69 | 172 | 3.0 | 7.0 | 0.00 | 0.00 | 0.00 | 68 | 1016.2 |
| 20260506024227 | 69 | 180 | 5.0 | 6.0 | 0.00 | 0.00 | 0.00 | 68 | 1016.1 |
| 20260506023727 | 69 | 125 | 5.0 | 7.0 | 0.00 | 0.00 | 0.00 | 68 | 1016.1 |
| 20260506023227 | 69 | 132 | 4.0 | 7.0 | 0.00 | 0.00 | 0.00 | 68 | 1016.0 |
| 20260506022727 | 69 | 115 | 3.0 | 8.0 | 0.00 | 0.00 | 0.00 | 67 | 1016.0 |
| 20260506022227 | 69 | 153 | 4.0 | 8.0 | 0.00 | 0.00 | 0.00 | 67 | 1015.9 |
| 20260506021727 | 69 | 132 | 3.0 | 9.0 | 0.00 | 0.00 | 0.00 | 68 | 1015.9 |
| 20260506021227 | 69 | 176 | 4.0 | 7.0 | 0.00 | 0.00 | 0.00 | 68 | 1015.8 |
| 20260506020727 | 69 | 168 | 4.0 | 8.0 | 0.00 | 0.00 | 0.00 | 68 | 1015.8 |
| 20260506020227 | 69 | 134 | 4.0 | 8.0 | 0.00 | 0.00 | 0.00 | 68 | 1015.7 |
| 20260506015727 | 69 | 152 | 3.0 | 8.0 | 0.00 | 0.00 | 0.00 | 67 | 1015.7 |
| 20260506015226 | 70 | 121 | 4.0 | 7.0 | 0.00 | 0.00 | 0.00 | 67 | 1015.7 |